Time,TemperatureF,DewpointF,PressureIn,WindDirection,WindDirectionDegrees,WindSpeedMPH,WindSpeedGustMPH,Humidity,HourlyPrecipIn,Conditions,Clouds,dailyrainin,SolarRadiationWatts/m^2,SoftwareType,DateUTC
2017-05-22 00:03:00,62.1,57.8,29.94,North,355,1.0,0.0,86,0.00,,,0.00,0,WeatherHawk,2017-05-22 07:03:00,
2017-05-22 00:08:00,62.1,57.8,29.94,WSW,248,0.0,0.0,86,0.00,,,0.00,0,WeatherHawk,2017-05-22 07:08:00,
2017-05-22 00:13:00,62.1,57.8,29.94,NNW,345,1.0,0.0,86,0.00,,,0.00,0,WeatherHawk,2017-05-22 07:13:00,
2017-05-22 00:18:00,61.9,57.6,29.94,North,353,3.0,0.0,86,0.00,,,0.00,0,WeatherHawk,2017-05-22 07:18:00,
2017-05-22 00:23:00,61.9,57.6,29.94,NNW,338,2.0,0.0,86,0.00,,,0.00,0,WeatherHawk,2017-05-22 07:23:00,
2017-05-22 00:28:00,62.1,57.8,29.94,SW,228,0.0,0.0,86,0.00,,,0.00,0,WeatherHawk,2017-05-22 07:28:00,
2017-05-22 00:33:00,61.9,57.6,29.93,NNW,334,4.0,0.0,86,0.00,,,0.00,0,WeatherHawk,2017-05-22 07:33:00,
2017-05-22 00:38:00,61.7,57.5,29.94,WSW,248,1.0,0.0,86,0.00,,,0.00,0,WeatherHawk,2017-05-22 07:38:00,
2017-05-22 00:43:00,61.7,57.5,29.93,North,9,2.0,0.0,86,0.00,,,0.00,1,WeatherHawk,2017-05-22 07:43:00,
2017-05-22 00:48:00,61.5,57.3,29.93,North,4,2.0,0.0,86,0.00,,,0.00,0,WeatherHawk,2017-05-22 07:48:00,
2017-05-22 00:53:00,61.2,56.9,29.93,North,3,1.0,0.0,86,0.00,,,0.00,0,WeatherHawk,2017-05-22 07:53:00,
2017-05-22 00:58:00,61.0,56.8,29.93,North,1,1.0,0.0,86,0.00,,,0.00,0,WeatherHawk,2017-05-22 07:58:00,
2017-05-22 01:03:00,61.0,56.8,29.93,North,352,2.0,0.0,86,0.00,,,0.00,0,WeatherHawk,2017-05-22 08:03:00,
2017-05-22 01:08:00,61.2,57.3,29.93,North,359,1.0,0.0,87,0.00,,,0.00,0,WeatherHawk,2017-05-22 08:08:00,
2017-05-22 01:13:00,61.3,57.4,29.93,NNW,330,2.0,0.0,87,0.00,,,0.00,0,WeatherHawk,2017-05-22 08:13:00,
2017-05-22 01:18:00,61.3,57.4,29.93,NNW,327,3.0,0.0,87,0.00,,,0.00,0,WeatherHawk,2017-05-22 08:18:00,
2017-05-22 01:23:00,61.3,57.4,29.93,North,356,1.0,0.0,87,0.00,,,0.00,0,WeatherHawk,2017-05-22 08:23:00,
2017-05-22 01:28:00,61.3,57.4,29.93,NNW,341,1.0,0.0,87,0.00,,,0.00,0,WeatherHawk,2017-05-22 08:28:00,
2017-05-22 01:33:00,61.2,56.9,29.93,NNW,333,2.0,0.0,86,0.00,,,0.00,0,WeatherHawk,2017-05-22 08:33:00,
2017-05-22 01:38:00,61.0,57.1,29.93,NNW,338,2.0,0.0,87,0.00,,,0.00,0,WeatherHawk,2017-05-22 08:38:00,
2017-05-22 01:43:00,61.0,57.1,29.93,NW,308,0.0,0.0,87,0.00,,,0.00,0,WeatherHawk,2017-05-22 08:43:00,
2017-05-22 01:48:00,61.0,57.1,29.92,West,278,1.0,0.0,87,0.00,,,0.00,0,WeatherHawk,2017-05-22 08:48:00,
2017-05-22 01:53:00,61.2,57.3,29.92,SSE,158,0.0,0.0,87,0.00,,,0.00,1,WeatherHawk,2017-05-22 08:53:00,
2017-05-22 01:58:00,61.2,57.3,29.92,East,92,1.0,0.0,87,0.00,,,0.00,0,WeatherHawk,2017-05-22 08:58:00,
2017-05-22 02:03:00,61.2,57.3,29.92,North,356,0.0,0.0,87,0.00,,,0.00,0,WeatherHawk,2017-05-22 09:03:00,
2017-05-22 02:08:00,61.2,57.3,29.91,SW,232,1.0,0.0,87,0.00,,,0.00,0,WeatherHawk,2017-05-22 09:08:00,
2017-05-22 02:13:00,61.2,57.3,29.91,North,359,1.0,0.0,87,0.00,,,0.00,1,WeatherHawk,2017-05-22 09:13:00,
2017-05-22 02:18:00,61.3,57.4,29.91,SW,235,0.0,0.0,87,0.00,,,0.00,0,WeatherHawk,2017-05-22 09:18:00,
2017-05-22 02:23:00,61.3,57.4,29.91,SW,224,0.0,0.0,87,0.00,,,0.00,0,WeatherHawk,2017-05-22 09:23:00,
2017-05-22 02:28:00,61.2,56.9,29.91,ENE,58,1.0,0.0,86,0.00,,,0.00,0,WeatherHawk,2017-05-22 09:28:00,
2017-05-22 02:33:00,61.2,56.9,29.91,North,350,1.0,0.0,86,0.00,,,0.00,0,WeatherHawk,2017-05-22 09:33:00,
2017-05-22 02:38:00,61.0,57.1,29.91,NW,309,1.0,0.0,87,0.00,,,0.00,0,WeatherHawk,2017-05-22 09:38:00,
2017-05-22 02:43:00,61.0,57.1,29.91,North,352,2.0,0.0,87,0.00,,,0.00,0,WeatherHawk,2017-05-22 09:43:00,
2017-05-22 02:48:00,61.0,57.1,29.90,NNW,339,2.0,0.0,87,0.00,,,0.00,0,WeatherHawk,2017-05-22 09:48:00,
2017-05-22 02:53:00,61.0,57.1,29.90,NNW,339,1.0,0.0,87,0.00,,,0.00,0,WeatherHawk,2017-05-22 09:53:00,
2017-05-22 02:58:00,61.0,57.1,29.90,North,351,1.0,0.0,87,0.00,,,0.00,0,WeatherHawk,2017-05-22 09:58:00,
2017-05-22 03:03:00,61.0,57.1,29.90,NNE,14,2.0,0.0,87,0.00,,,0.00,0,WeatherHawk,2017-05-22 10:03:00,
2017-05-22 03:08:00,60.8,56.9,29.90,NNW,334,2.0,0.0,87,0.00,,,0.00,0,WeatherHawk,2017-05-22 10:08:00,
2017-05-22 03:13:00,61.0,57.1,29.90,NNE,18,2.0,0.0,87,0.00,,,0.00,0,WeatherHawk,2017-05-22 10:13:00,
2017-05-22 03:18:00,61.0,57.4,29.90,North,349,1.0,0.0,88,0.00,,,0.00,0,WeatherHawk,2017-05-22 10:18:00,
2017-05-22 03:23:00,60.8,56.9,29.90,North,5,1.0,0.0,87,0.00,,,0.00,0,WeatherHawk,2017-05-22 10:23:00,
2017-05-22 03:28:00,60.8,57.2,29.90,North,5,2.0,0.0,88,0.00,,,0.00,0,WeatherHawk,2017-05-22 10:28:00,
2017-05-22 03:33:00,60.8,57.2,29.89,NNW,345,1.0,0.0,88,0.00,,,0.00,0,WeatherHawk,2017-05-22 10:33:00,
2017-05-22 03:38:00,60.6,57.0,29.89,North,350,2.0,0.0,88,0.00,,,0.00,0,WeatherHawk,2017-05-22 10:38:00,
2017-05-22 03:43:00,60.4,56.9,29.89,North,356,2.0,0.0,88,0.00,,,0.00,0,WeatherHawk,2017-05-22 10:43:00,
2017-05-22 03:48:00,60.3,56.7,29.89,NNE,21,2.0,0.0,88,0.00,,,0.00,0,WeatherHawk,2017-05-22 10:48:00,
2017-05-22 03:53:00,60.3,56.7,29.89,NNW,339,1.0,0.0,88,0.00,,,0.00,0,WeatherHawk,2017-05-22 10:53:00,
2017-05-22 03:58:00,60.3,56.7,29.89,NW,314,2.0,0.0,88,0.00,,,0.00,0,WeatherHawk,2017-05-22 10:58:00,
2017-05-22 04:03:00,60.3,57.0,29.89,West,280,1.0,0.0,89,0.00,,,0.00,0,WeatherHawk,2017-05-22 11:03:00,
2017-05-22 04:08:00,60.3,57.0,29.89,North,350,1.0,0.0,89,0.00,,,0.00,0,WeatherHawk,2017-05-22 11:08:00,
2017-05-22 04:13:00,60.3,57.0,29.89,SW,234,0.0,0.0,89,0.00,,,0.00,0,WeatherHawk,2017-05-22 11:13:00,
2017-05-22 04:15:00,60.3,57.0,29.89,WNW,299,1.0,0.0,89,0.00,,,0.00,0,WeatherHawk,2017-05-22 11:15:00,
2017-05-22 04:20:00,60.3,57.0,29.89,West,279,1.0,0.0,89,0.00,,,0.00,0,WeatherHawk,2017-05-22 11:20:00,
2017-05-22 04:25:00,60.3,57.0,29.90,NNW,347,2.0,0.0,89,0.00,,,0.00,0,WeatherHawk,2017-05-22 11:25:00,
2017-05-22 04:30:00,60.3,57.0,29.90,SW,235,2.0,0.0,89,0.00,,,0.00,0,WeatherHawk,2017-05-22 11:30:00,
2017-05-22 04:35:00,60.3,57.0,29.90,SW,231,1.0,0.0,89,0.00,,,0.00,0,WeatherHawk,2017-05-22 11:35:00,
2017-05-22 04:40:00,60.3,57.0,29.90,NW,306,1.0,0.0,89,0.00,,,0.00,0,WeatherHawk,2017-05-22 11:40:00,
2017-05-22 04:45:00,60.3,57.0,29.90,NNW,343,4.0,0.0,89,0.00,,,0.00,0,WeatherHawk,2017-05-22 11:45:00,
2017-05-22 04:50:00,59.9,56.6,29.90,NW,315,1.0,0.0,89,0.00,,,0.00,0,WeatherHawk,2017-05-22 11:50:00,
2017-05-22 04:55:00,59.7,56.5,29.90,NNW,343,2.0,0.0,89,0.00,,,0.00,0,WeatherHawk,2017-05-22 11:55:00,
2017-05-22 05:00:00,59.7,56.5,29.90,North,9,2.0,0.0,89,0.00,,,0.00,1,WeatherHawk,2017-05-22 12:00:00,
2017-05-22 05:05:00,59.7,56.5,29.90,WNW,296,1.0,0.0,89,0.00,,,0.00,0,WeatherHawk,2017-05-22 12:05:00,
2017-05-22 05:10:00,59.7,56.5,29.90,North,359,2.0,0.0,89,0.00,,,0.00,0,WeatherHawk,2017-05-22 12:10:00,
2017-05-22 05:15:00,59.7,56.5,29.90,North,359,2.0,0.0,89,0.00,,,0.00,0,WeatherHawk,2017-05-22 12:15:00,
2017-05-22 05:20:00,59.9,56.6,29.90,WNW,286,3.0,0.0,89,0.00,,,0.00,0,WeatherHawk,2017-05-22 12:20:00,
2017-05-22 05:25:00,59.9,56.6,29.90,WNW,287,1.0,0.0,89,0.00,,,0.00,0,WeatherHawk,2017-05-22 12:25:00,
2017-05-22 05:30:00,59.9,56.6,29.90,North,1,1.0,0.0,89,0.00,,,0.00,0,WeatherHawk,2017-05-22 12:30:00,
2017-05-22 05:35:00,59.9,56.6,29.90,North,358,2.0,0.0,89,0.00,,,0.00,0,WeatherHawk,2017-05-22 12:35:00,
2017-05-22 05:40:00,59.9,56.6,29.90,North,356,2.0,0.0,89,0.00,,,0.00,0,WeatherHawk,2017-05-22 12:40:00,
2017-05-22 05:45:00,59.7,56.5,29.91,North,10,2.0,0.0,89,0.00,,,0.00,0,WeatherHawk,2017-05-22 12:45:00,
2017-05-22 05:50:00,59.7,56.5,29.91,North,9,1.0,0.0,89,0.00,,,0.00,0,WeatherHawk,2017-05-22 12:50:00,
2017-05-22 05:55:00,59.7,56.5,29.91,North,352,1.0,0.0,89,0.00,,,0.00,0,WeatherHawk,2017-05-22 12:55:00,
2017-05-22 06:00:00,59.7,56.5,29.91,North,351,2.0,0.0,89,0.00,,,0.00,0,WeatherHawk,2017-05-22 13:00:00,
2017-05-22 06:05:00,59.5,56.3,29.91,North,3,2.0,0.0,89,0.00,,,0.00,0,WeatherHawk,2017-05-22 13:05:00,
2017-05-22 06:10:00,59.5,56.3,29.92,NNE,24,2.0,0.0,89,0.00,,,0.00,0,WeatherHawk,2017-05-22 13:10:00,
2017-05-22 06:16:00,59.4,56.1,29.92,NNW,330,0.0,0.0,89,0.00,,,0.00,1,WeatherHawk,2017-05-22 13:16:00,
2017-05-22 06:21:00,59.4,56.1,29.92,North,353,3.0,0.0,89,0.00,,,0.00,0,WeatherHawk,2017-05-22 13:21:00,
2017-05-22 06:26:00,59.4,56.1,29.92,NE,38,1.0,0.0,89,0.00,,,0.00,1,WeatherHawk,2017-05-22 13:26:00,
2017-05-22 06:31:00,59.4,56.1,29.93,NNW,339,2.0,0.0,89,0.00,,,0.00,1,WeatherHawk,2017-05-22 13:31:00,
2017-05-22 06:36:00,59.4,56.1,29.93,East,91,1.0,0.0,89,0.00,,,0.00,0,WeatherHawk,2017-05-22 13:36:00,
2017-05-22 06:41:00,59.4,56.1,29.93,ENE,66,2.0,0.0,89,0.00,,,0.00,0,WeatherHawk,2017-05-22 13:41:00,
2017-05-22 06:46:00,59.5,56.3,29.93,East,87,2.0,0.0,89,0.00,,,0.00,0,WeatherHawk,2017-05-22 13:46:00,
2017-05-22 06:51:00,59.5,56.3,29.93,North,5,1.0,0.0,89,0.00,,,0.00,0,WeatherHawk,2017-05-22 13:51:00,
2017-05-22 06:56:00,59.7,56.5,29.93,NE,50,2.0,0.0,89,0.00,,,0.00,0,WeatherHawk,2017-05-22 13:56:00,
2017-05-22 07:01:00,59.7,56.2,29.93,NNE,31,1.0,0.0,88,0.00,,,0.00,0,WeatherHawk,2017-05-22 14:01:00,
2017-05-22 07:06:00,59.7,56.2,29.93,NNE,32,2.0,0.0,88,0.00,,,0.00,0,WeatherHawk,2017-05-22 14:06:00,
2017-05-22 07:11:00,59.9,56.3,29.93,ESE,103,1.0,0.0,88,0.00,,,0.00,0,WeatherHawk,2017-05-22 14:11:00,
2017-05-22 07:16:00,60.3,56.7,29.94,North,353,1.0,0.0,88,0.00,,,0.00,0,WeatherHawk,2017-05-22 14:16:00,
2017-05-22 07:21:00,60.4,56.5,29.94,ENE,75,2.0,0.0,87,0.00,,,0.00,0,WeatherHawk,2017-05-22 14:21:00,
2017-05-22 07:26:00,60.3,56.1,29.94,East,93,1.0,0.0,86,0.00,,,0.00,0,WeatherHawk,2017-05-22 14:26:00,
2017-05-22 07:31:00,60.1,55.6,29.94,NNE,13,2.0,0.0,85,0.00,,,0.00,0,WeatherHawk,2017-05-22 14:31:00,
2017-05-22 07:36:00,60.1,55.6,29.94,ENE,67,2.0,0.0,85,0.00,,,0.00,0,WeatherHawk,2017-05-22 14:36:00,
2017-05-22 07:41:00,60.4,55.9,29.94,East,100,1.0,0.0,85,0.00,,,0.00,0,WeatherHawk,2017-05-22 14:41:00,
2017-05-22 07:45:00,60.6,56.1,29.95,ENE,67,2.0,0.0,85,0.00,,,0.00,0,WeatherHawk,2017-05-22 14:45:00,
2017-05-22 07:50:00,61.0,55.8,29.95,ENE,71,3.0,0.0,83,0.00,,,0.00,0,WeatherHawk,2017-05-22 14:50:00,
2017-05-22 07:55:00,61.0,55.4,29.95,ENE,62,2.0,0.0,82,0.00,,,0.00,1,WeatherHawk,2017-05-22 14:55:00,
2017-05-22 08:00:00,61.3,55.8,29.95,East,96,2.0,0.0,82,0.00,,,0.00,0,WeatherHawk,2017-05-22 15:00:00,
2017-05-22 08:05:00,61.7,55.5,29.95,ENE,77,2.0,0.0,80,0.00,,,0.00,2,WeatherHawk,2017-05-22 15:05:00,
2017-05-22 08:10:00,62.6,56.3,29.95,NNE,12,3.0,0.0,80,0.00,,,0.00,3,WeatherHawk,2017-05-22 15:10:00,
2017-05-22 08:15:00,63.0,56.0,29.95,WNW,283,3.0,0.0,78,0.00,,,0.00,0,WeatherHawk,2017-05-22 15:15:00,
2017-05-22 08:20:00,63.7,56.0,29.95,NW,314,2.0,0.0,76,0.00,,,0.00,1,WeatherHawk,2017-05-22 15:20:00,
2017-05-22 08:25:00,64.0,55.9,29.95,West,261,1.0,0.0,75,0.00,,,0.00,0,WeatherHawk,2017-05-22 15:25:00,
2017-05-22 08:30:00,65.1,55.9,29.95,ENE,76,4.0,0.0,72,0.00,,,0.00,0,WeatherHawk,2017-05-22 15:30:00,
2017-05-22 08:35:00,65.3,55.6,29.95,NE,54,2.0,0.0,71,0.00,,,0.00,8,WeatherHawk,2017-05-22 15:35:00,
2017-05-22 08:40:00,66.0,55.9,29.95,ENE,76,3.0,0.0,70,0.00,,,0.00,10,WeatherHawk,2017-05-22 15:40:00,
2017-05-22 08:45:00,66.2,55.7,29.96,ENE,72,3.0,0.0,69,0.00,,,0.00,8,WeatherHawk,2017-05-22 15:45:00,
2017-05-22 08:50:00,66.6,55.7,29.95,East,89,3.0,0.0,68,0.00,,,0.00,6,WeatherHawk,2017-05-22 15:50:00,
2017-05-22 08:55:00,66.7,55.8,29.95,ESE,123,1.0,0.0,68,0.00,,,0.00,9,WeatherHawk,2017-05-22 15:55:00,
2017-05-22 09:00:00,66.9,56.4,29.95,NNE,18,1.0,0.0,69,0.00,,,0.00,6,WeatherHawk,2017-05-22 16:00:00,
2017-05-22 09:05:00,68.4,56.5,29.95,East,97,3.0,0.0,66,0.00,,,0.00,47,WeatherHawk,2017-05-22 16:05:00,
2017-05-22 09:10:00,68.9,56.2,29.95,NNE,30,2.0,0.0,64,0.00,,,0.00,28,WeatherHawk,2017-05-22 16:10:00,
2017-05-22 09:15:00,69.4,56.3,29.95,ENE,77,4.0,0.0,63,0.00,,,0.00,66,WeatherHawk,2017-05-22 16:15:00,
2017-05-22 09:20:00,69.1,55.9,29.95,North,349,1.0,0.0,63,0.00,,,0.00,682,WeatherHawk,2017-05-22 16:20:00,
2017-05-22 09:25:00,69.8,55.7,29.95,ESE,116,3.0,0.0,61,0.00,,,0.00,45,WeatherHawk,2017-05-22 16:25:00,
2017-05-22 09:30:00,70.7,55.7,29.95,North,7,4.0,0.0,59,0.00,,,0.00,0,WeatherHawk,2017-05-22 16:30:00,
2017-05-22 09:35:00,70.7,56.1,29.95,ENE,63,3.0,0.0,60,0.00,,,0.00,0,WeatherHawk,2017-05-22 16:35:00,
2017-05-22 09:40:00,71.6,56.0,29.95,ESE,105,4.0,0.0,58,0.00,,,0.00,0,WeatherHawk,2017-05-22 16:40:00,
2017-05-22 09:45:00,72.0,56.4,29.95,ENE,58,2.0,0.0,58,0.00,,,0.00,0,WeatherHawk,2017-05-22 16:45:00,
2017-05-22 09:50:00,73.0,56.4,29.95,SE,124,1.0,0.0,56,0.00,,,0.00,0,WeatherHawk,2017-05-22 16:50:00,
2017-05-22 09:55:00,74.5,56.2,29.95,SSW,213,1.0,0.0,53,0.00,,,0.00,0,WeatherHawk,2017-05-22 16:55:00,
2017-05-22 10:00:00,74.8,56.5,29.95,SE,141,2.0,0.0,53,0.00,,,0.00,0,WeatherHawk,2017-05-22 17:00:00,
2017-05-22 10:05:00,74.8,56.0,29.95,ENE,67,1.0,0.0,52,0.00,,,0.00,0,WeatherHawk,2017-05-22 17:05:00,
2017-05-22 10:10:00,75.6,55.6,29.95,SE,146,5.0,0.0,50,0.00,,,0.00,89,WeatherHawk,2017-05-22 17:10:00,
2017-05-22 10:16:00,75.9,56.5,29.95,ENE,71,4.0,0.0,51,0.00,,,0.00,87,WeatherHawk,2017-05-22 17:16:00,
2017-05-22 10:21:00,75.9,57.5,29.95,SE,127,1.0,0.0,53,0.00,,,0.00,84,WeatherHawk,2017-05-22 17:21:00,
2017-05-22 10:26:00,75.4,57.0,29.95,South,186,3.0,0.0,53,0.00,,,0.00,211,WeatherHawk,2017-05-22 17:26:00,
2017-05-22 10:31:00,74.5,56.7,29.95,SW,218,8.0,0.0,54,0.00,,,0.00,220,WeatherHawk,2017-05-22 17:31:00,
2017-05-22 10:36:00,73.8,56.6,29.95,WSW,252,6.0,0.0,55,0.00,,,0.00,0,WeatherHawk,2017-05-22 17:36:00,
2017-05-22 10:41:00,73.0,56.4,29.95,WSW,248,4.0,0.0,56,0.00,,,0.00,0,WeatherHawk,2017-05-22 17:41:00,
2017-05-22 10:46:00,72.7,56.1,29.95,SW,227,7.0,0.0,56,0.00,,,0.00,0,WeatherHawk,2017-05-22 17:46:00,
2017-05-22 10:51:00,72.3,56.2,29.95,SW,221,10.0,0.0,57,0.00,,,0.00,0,WeatherHawk,2017-05-22 17:51:00,
2017-05-22 10:56:00,72.0,56.8,29.95,WSW,238,6.0,0.0,59,0.00,,,0.00,0,WeatherHawk,2017-05-22 17:56:00,
2017-05-22 11:01:00,72.5,56.4,29.95,WSW,240,7.0,0.0,57,0.00,,,0.00,0,WeatherHawk,2017-05-22 18:01:00,
2017-05-22 11:06:00,73.2,57.1,29.95,SW,220,5.0,0.0,57,0.00,,,0.00,0,WeatherHawk,2017-05-22 18:06:00,
2017-05-22 11:12:00,73.9,56.7,29.95,WNW,282,4.0,0.0,55,0.00,,,0.00,1,WeatherHawk,2017-05-22 18:12:00,
2017-05-22 11:17:00,73.9,56.7,29.95,WSW,245,4.0,0.0,55,0.00,,,0.00,0,WeatherHawk,2017-05-22 18:17:00,
2017-05-22 11:22:00,73.9,56.7,29.95,WSW,243,9.0,0.0,55,0.00,,,0.00,0,WeatherHawk,2017-05-22 18:22:00,
2017-05-22 11:25:00,74.5,56.7,29.95,WSW,258,5.0,0.0,54,0.00,,,0.00,2,WeatherHawk,2017-05-22 18:25:00,
2017-05-22 11:29:00,74.8,56.5,29.95,West,260,6.0,0.0,53,0.00,,,0.00,0,WeatherHawk,2017-05-22 18:29:00,
2017-05-22 11:32:00,75.0,56.7,29.95,SW,232,3.0,0.0,53,0.00,,,0.00,0,WeatherHawk,2017-05-22 18:32:00,
2017-05-22 11:37:00,75.2,56.3,29.95,West,277,6.0,0.0,52,0.00,,,0.00,0,WeatherHawk,2017-05-22 18:37:00,
2017-05-22 11:42:00,75.2,56.3,29.95,SW,220,5.0,0.0,52,0.00,,,0.00,0,WeatherHawk,2017-05-22 18:42:00,
2017-05-22 11:47:00,75.6,56.7,29.95,SSW,203,6.0,0.0,52,0.00,,,0.00,0,WeatherHawk,2017-05-22 18:47:00,
2017-05-22 11:52:00,75.6,56.7,29.95,West,260,6.0,0.0,52,0.00,,,0.00,0,WeatherHawk,2017-05-22 18:52:00,
2017-05-22 11:57:00,75.6,56.1,29.95,WSW,252,8.0,0.0,51,0.00,,,0.00,0,WeatherHawk,2017-05-22 18:57:00,
2017-05-22 12:02:00,75.4,56.5,29.94,WSW,254,6.0,0.0,52,0.00,,,0.00,0,WeatherHawk,2017-05-22 19:02:00,
2017-05-22 12:07:00,75.9,56.5,29.94,West,261,8.0,0.0,51,0.00,,,0.00,0,WeatherHawk,2017-05-22 19:07:00,
2017-05-22 12:12:00,76.1,56.6,29.94,WSW,252,7.0,0.0,51,0.00,,,0.00,0,WeatherHawk,2017-05-22 19:12:00,
2017-05-22 12:17:00,76.6,57.1,29.94,SW,234,2.0,0.0,51,0.00,,,0.00,0,WeatherHawk,2017-05-22 19:17:00,
2017-05-22 12:22:00,77.5,56.8,29.94,WNW,285,8.0,0.0,49,0.00,,,0.00,998,WeatherHawk,2017-05-22 19:22:00,
2017-05-22 12:27:00,77.4,57.2,29.94,SSW,212,5.0,0.0,50,0.00,,,0.00,998,WeatherHawk,2017-05-22 19:27:00,
2017-05-22 12:32:00,78.6,57.3,29.94,SW,227,3.0,0.0,48,0.00,,,0.00,1031,WeatherHawk,2017-05-22 19:32:00,
2017-05-22 12:37:00,79.3,54.9,29.94,WNW,286,1.0,0.0,43,0.00,,,0.00,0,WeatherHawk,2017-05-22 19:37:00,
2017-05-22 12:42:00,79.9,55.4,29.93,SW,223,2.0,0.0,43,0.00,,,0.00,0,WeatherHawk,2017-05-22 19:42:00,
2017-05-22 12:47:00,80.4,54.5,29.93,NW,314,3.0,0.0,41,0.00,,,0.00,0,WeatherHawk,2017-05-22 19:47:00,
2017-05-22 12:52:00,79.7,54.6,29.94,West,269,8.0,0.0,42,0.00,,,0.00,0,WeatherHawk,2017-05-22 19:52:00,
2017-05-22 12:57:00,79.3,54.2,29.93,WSW,248,2.0,0.0,42,0.00,,,0.00,0,WeatherHawk,2017-05-22 19:57:00,
2017-05-22 13:02:00,79.2,54.7,29.93,WNW,296,3.0,0.0,43,0.00,,,0.00,0,WeatherHawk,2017-05-22 20:02:00,
2017-05-22 13:07:00,79.9,54.7,29.93,West,269,6.0,0.0,42,0.00,,,0.00,0,WeatherHawk,2017-05-22 20:07:00,
2017-05-22 13:12:00,79.5,55.0,29.93,NW,323,8.0,0.0,43,0.00,,,0.00,0,WeatherHawk,2017-05-22 20:12:00,
2017-05-22 13:17:00,79.9,53.4,29.93,WNW,296,5.0,0.0,40,0.00,,,0.00,0,WeatherHawk,2017-05-22 20:17:00,
2017-05-22 13:22:00,79.2,54.1,29.93,NW,326,7.0,0.0,42,0.00,,,0.00,0,WeatherHawk,2017-05-22 20:22:00,
2017-05-22 13:27:00,78.4,54.1,29.93,WNW,283,3.0,0.0,43,0.00,,,0.00,0,WeatherHawk,2017-05-22 20:27:00,
2017-05-22 13:32:00,78.3,53.9,29.93,NNW,331,7.0,0.0,43,0.00,,,0.00,0,WeatherHawk,2017-05-22 20:32:00,
2017-05-22 13:38:00,79.0,54.6,29.92,NW,314,3.0,0.0,43,0.00,,,0.00,0,WeatherHawk,2017-05-22 20:38:00,
2017-05-22 13:43:00,79.3,54.9,29.92,NW,306,5.0,0.0,43,0.00,,,0.00,0,WeatherHawk,2017-05-22 20:43:00,
2017-05-22 13:48:00,79.3,54.9,29.92,West,272,6.0,0.0,43,0.00,,,0.00,0,WeatherHawk,2017-05-22 20:48:00,
2017-05-22 13:53:00,79.2,54.7,29.92,WNW,300,6.0,0.0,43,0.00,,,0.00,0,WeatherHawk,2017-05-22 20:53:00,
2017-05-22 13:58:00,79.5,53.7,29.92,West,259,2.0,0.0,41,0.00,,,0.00,0,WeatherHawk,2017-05-22 20:58:00,
2017-05-22 14:03:00,79.7,53.9,29.92,NNW,342,6.0,0.0,41,0.00,,,0.00,0,WeatherHawk,2017-05-22 21:03:00,
2017-05-22 14:08:00,79.9,54.1,29.92,WSW,245,1.0,0.0,41,0.00,,,0.00,0,WeatherHawk,2017-05-22 21:08:00,
2017-05-22 14:13:00,80.1,54.2,29.92,NW,311,3.0,0.0,41,0.00,,,0.00,0,WeatherHawk,2017-05-22 21:13:00,
2017-05-22 14:18:00,80.2,54.4,29.92,WNW,291,6.0,0.0,41,0.00,,,0.00,0,WeatherHawk,2017-05-22 21:18:00,
2017-05-22 14:23:00,80.1,54.9,29.92,NW,305,4.0,0.0,42,0.00,,,0.00,0,WeatherHawk,2017-05-22 21:23:00,
2017-05-22 14:28:00,80.2,55.0,29.91,SSW,207,4.0,0.0,42,0.00,,,0.00,0,WeatherHawk,2017-05-22 21:28:00,
2017-05-22 14:33:00,80.2,54.4,29.92,NW,313,6.0,0.0,41,0.00,,,0.00,0,WeatherHawk,2017-05-22 21:33:00,
2017-05-22 14:39:00,80.1,54.9,29.91,WSW,238,6.0,0.0,42,0.00,,,0.00,0,WeatherHawk,2017-05-22 21:39:00,
2017-05-22 14:44:00,79.9,54.7,29.91,SW,234,7.0,0.0,42,0.00,,,0.00,0,WeatherHawk,2017-05-22 21:44:00,
2017-05-22 14:49:00,79.3,53.6,29.91,SW,226,7.0,0.0,41,0.00,,,0.00,0,WeatherHawk,2017-05-22 21:49:00,
2017-05-22 14:54:00,79.7,55.2,29.91,NW,321,4.0,0.0,43,0.00,,,0.00,1,WeatherHawk,2017-05-22 21:54:00,
2017-05-22 14:59:00,79.9,54.1,29.91,SW,217,3.0,0.0,41,0.00,,,0.00,0,WeatherHawk,2017-05-22 21:59:00,
2017-05-22 15:04:00,78.8,54.4,29.91,West,264,7.0,0.0,43,0.00,,,0.00,0,WeatherHawk,2017-05-22 22:04:00,
2017-05-22 15:09:00,78.4,54.1,29.91,WNW,301,2.0,0.0,43,0.00,,,0.00,0,WeatherHawk,2017-05-22 22:09:00,
2017-05-22 15:14:00,79.0,54.6,29.91,West,279,6.0,0.0,43,0.00,,,0.00,0,WeatherHawk,2017-05-22 22:14:00,
2017-05-22 15:19:00,78.4,54.7,29.90,WSW,239,2.0,0.0,44,0.00,,,0.00,1,WeatherHawk,2017-05-22 22:19:00,
2017-05-22 15:24:00,79.3,54.2,29.90,NW,320,3.0,0.0,42,0.00,,,0.00,0,WeatherHawk,2017-05-22 22:24:00,
2017-05-22 15:29:00,78.6,54.2,29.90,West,271,5.0,0.0,43,0.00,,,0.00,0,WeatherHawk,2017-05-22 22:29:00,
2017-05-22 15:34:00,77.7,53.4,29.90,NNW,331,3.0,0.0,43,0.00,,,0.00,2,WeatherHawk,2017-05-22 22:34:00,
2017-05-22 15:39:00,78.3,54.5,29.90,West,263,6.0,0.0,44,0.00,,,0.00,0,WeatherHawk,2017-05-22 22:39:00,
2017-05-22 15:44:00,77.9,54.2,29.90,WNW,285,4.0,0.0,44,0.00,,,0.00,0,WeatherHawk,2017-05-22 22:44:00,
2017-05-22 15:49:00,77.7,54.7,29.90,WSW,258,4.0,0.0,45,0.00,,,0.00,0,WeatherHawk,2017-05-22 22:49:00,
2017-05-22 15:54:00,77.9,54.8,29.90,WNW,301,8.0,0.0,45,0.00,,,0.00,0,WeatherHawk,2017-05-22 22:54:00,
2017-05-22 15:59:00,77.5,54.5,29.90,West,267,5.0,0.0,45,0.00,,,0.00,0,WeatherHawk,2017-05-22 22:59:00,
2017-05-22 16:04:00,77.5,54.5,29.90,WNW,303,6.0,0.0,45,0.00,,,0.00,1,WeatherHawk,2017-05-22 23:04:00,
2017-05-22 16:09:00,77.5,55.1,29.90,WNW,299,7.0,0.0,46,0.00,,,0.00,1,WeatherHawk,2017-05-22 23:09:00,
2017-05-22 16:14:00,77.0,55.2,29.90,NW,314,7.0,0.0,47,0.00,,,0.00,0,WeatherHawk,2017-05-22 23:14:00,
2017-05-22 16:19:00,77.4,55.5,29.90,WSW,245,5.0,0.0,47,0.00,,,0.00,0,WeatherHawk,2017-05-22 23:19:00,
2017-05-22 16:24:00,77.0,55.2,29.90,NNW,337,4.0,0.0,47,0.00,,,0.00,3,WeatherHawk,2017-05-22 23:24:00,
2017-05-22 16:29:00,76.8,55.6,29.90,WNW,289,5.0,0.0,48,0.00,,,0.00,5,WeatherHawk,2017-05-22 23:29:00,
2017-05-22 16:34:00,76.1,55.5,29.90,WNW,297,6.0,0.0,49,0.00,,,0.00,617,WeatherHawk,2017-05-22 23:34:00,
2017-05-22 16:39:00,75.6,55.6,29.90,WSW,253,4.0,0.0,50,0.00,,,0.00,1,WeatherHawk,2017-05-22 23:39:00,
2017-05-22 16:44:00,75.4,56.0,29.90,WNW,285,5.0,0.0,51,0.00,,,0.00,0,WeatherHawk,2017-05-22 23:44:00,
2017-05-22 16:49:00,75.6,55.6,29.90,West,270,4.0,0.0,50,0.00,,,0.00,567,WeatherHawk,2017-05-22 23:49:00,
2017-05-22 16:54:00,75.9,55.9,29.90,West,274,7.0,0.0,50,0.00,,,0.00,550,WeatherHawk,2017-05-22 23:54:00,
2017-05-22 16:59:00,75.6,56.1,29.90,NW,308,3.0,0.0,51,0.00,,,0.00,0,WeatherHawk,2017-05-22 23:59:00,
2017-05-22 17:04:00,75.0,55.6,29.90,WNW,295,1.0,0.0,51,0.00,,,0.00,131,WeatherHawk,2017-05-23 00:04:00,
2017-05-22 17:09:00,75.0,56.2,29.90,WSW,254,4.0,0.0,52,0.00,,,0.00,97,WeatherHawk,2017-05-23 00:09:00,
2017-05-22 17:14:00,74.5,55.1,29.90,SW,230,4.0,0.0,51,0.00,,,0.00,56,WeatherHawk,2017-05-23 00:14:00,
2017-05-22 17:19:00,73.8,55.5,29.90,NW,304,5.0,0.0,53,0.00,,,0.00,0,WeatherHawk,2017-05-23 00:19:00,
2017-05-22 17:25:00,73.9,55.7,29.90,NW,312,6.0,0.0,53,0.00,,,0.00,0,WeatherHawk,2017-05-23 00:25:00,
2017-05-22 17:30:00,74.3,56.0,29.90,WNW,294,2.0,0.0,53,0.00,,,0.00,0,WeatherHawk,2017-05-23 00:30:00,
2017-05-22 17:35:00,73.6,55.9,29.90,West,272,7.0,0.0,54,0.00,,,0.00,0,WeatherHawk,2017-05-23 00:35:00,
2017-05-22 17:40:00,72.7,56.1,29.90,NW,320,2.0,0.0,56,0.00,,,0.00,0,WeatherHawk,2017-05-23 00:40:00,
2017-05-22 17:45:00,72.5,55.9,29.90,WSW,258,8.0,0.0,56,0.00,,,0.00,0,WeatherHawk,2017-05-23 00:45:00,
2017-05-22 17:50:00,72.1,55.6,29.90,WNW,283,3.0,0.0,56,0.00,,,0.00,0,WeatherHawk,2017-05-23 00:50:00,
2017-05-22 17:55:00,71.8,55.7,29.90,NW,313,2.0,0.0,57,0.00,,,0.00,0,WeatherHawk,2017-05-23 00:55:00,
2017-05-22 18:00:00,71.8,55.7,29.90,West,261,2.0,0.0,57,0.00,,,0.00,1,WeatherHawk,2017-05-23 01:00:00,
2017-05-22 18:05:00,71.6,56.0,29.90,NW,306,2.0,0.0,58,0.00,,,0.00,0,WeatherHawk,2017-05-23 01:05:00,
2017-05-22 18:10:00,71.6,56.0,29.90,WSW,250,3.0,0.0,58,0.00,,,0.00,1,WeatherHawk,2017-05-23 01:10:00,
2017-05-22 18:15:00,71.1,56.0,29.90,West,263,1.0,0.0,59,0.00,,,0.00,0,WeatherHawk,2017-05-23 01:15:00,
2017-05-22 18:20:00,70.7,55.7,29.90,NW,305,6.0,0.0,59,0.00,,,0.00,0,WeatherHawk,2017-05-23 01:20:00,
2017-05-22 18:25:00,70.5,56.0,29.90,West,271,2.0,0.0,60,0.00,,,0.00,0,WeatherHawk,2017-05-23 01:25:00,
2017-05-22 18:30:00,70.2,55.6,29.90,West,266,5.0,0.0,60,0.00,,,0.00,0,WeatherHawk,2017-05-23 01:30:00,
2017-05-22 18:35:00,69.8,55.7,29.90,SW,222,3.0,0.0,61,0.00,,,0.00,0,WeatherHawk,2017-05-23 01:35:00,
2017-05-22 18:45:00,70.0,55.9,29.90,WNW,288,2.0,0.0,61,0.00,,,0.00,0,WeatherHawk,2017-05-23 01:45:00,
2017-05-22 18:50:00,69.6,55.6,29.90,NNW,330,3.0,0.0,61,0.00,,,0.00,0,WeatherHawk,2017-05-23 01:50:00,
2017-05-22 18:55:00,69.6,55.6,29.90,WNW,289,4.0,0.0,61,0.00,,,0.00,0,WeatherHawk,2017-05-23 01:55:00,
2017-05-22 19:00:00,69.3,55.7,29.90,North,358,2.0,0.0,62,0.00,,,0.00,5,WeatherHawk,2017-05-23 02:00:00,
2017-05-22 19:05:00,68.9,55.8,29.91,North,354,1.0,0.0,63,0.00,,,0.00,0,WeatherHawk,2017-05-23 02:05:00,
2017-05-22 19:10:00,69.1,55.9,29.91,WNW,284,3.0,0.0,63,0.00,,,0.00,0,WeatherHawk,2017-05-23 02:10:00,
2017-05-22 19:15:00,68.7,56.0,29.91,WNW,288,4.0,0.0,64,0.00,,,0.00,0,WeatherHawk,2017-05-23 02:15:00,
2017-05-22 19:20:00,68.2,56.0,29.91,West,276,6.0,0.0,65,0.00,,,0.00,0,WeatherHawk,2017-05-23 02:20:00,
2017-05-22 19:25:00,67.6,55.9,29.91,WNW,293,7.0,0.0,66,0.00,,,0.00,0,WeatherHawk,2017-05-23 02:25:00,
2017-05-22 19:30:00,67.1,56.2,29.92,WNW,292,4.0,0.0,68,0.00,,,0.00,0,WeatherHawk,2017-05-23 02:30:00,
2017-05-22 19:35:00,66.6,56.1,29.92,West,271,5.0,0.0,69,0.00,,,0.00,0,WeatherHawk,2017-05-23 02:35:00,
2017-05-22 19:40:00,66.2,56.1,29.92,West,281,3.0,0.0,70,0.00,,,0.00,0,WeatherHawk,2017-05-23 02:40:00,
2017-05-22 19:45:00,65.8,55.8,29.92,WNW,292,6.0,0.0,70,0.00,,,0.00,0,WeatherHawk,2017-05-23 02:45:00,